"Pseudo-MPEC" for P1163oV

Created 2020 Sep 17 0:07:37 UT using Find_Orb

Click here for an explanation of pseudo-MPECs

 
 Astrometry: 
     P1163oV  C2020 09 148g%AstrometryJH/+WcF+kjcredacted;XN2)U2F9=/BM,(Cs@dRF51
     P1163oV  C2020 09 14jf;OC$mjd8ZMJb9SrKT1Bc-JI5GBU1Nywi(umOe1By^l;wF3#TxEF51
     P1163oV  C2020 09 14=,I@ApQ[jP333.ZbMl*LPwA(w/+Q-*HmTBiJ^@`(Js;]'uTA*ZL[F51
     P1163oV  C2020 09 14!T20_=rCe?w-.E(bM-[hDbD_)veQ?QXnhclick4-SupUAR=n_R7^F51
     P1163oV ^C2020 09 15.57524403 47 41.454-04 00 58.38   ~9FIM 22.04GVNEOCP568
     P1163oV ^C2020 09 15.57642203 47 41.541-04 00 58.78   ~9FIM 22.06GVNEOCP568
     P1163oV ^C2020 09 15.57761103 47 41.630-04 00 59.25   ~9FIM 22.09GVNEOCP568
     P1163oV  C2020 09 16:U\0nehere`Z^for8S5.2]v4q]gmSwh`:\Ems]a(@rQ_21C$22PpF51
     P1163oV  C2020 09 16bgF`4S]9Q99xfv:opfVxeS#)fiZ6RRWRll+OHE[;83(4'Q+mQ;lnF51
     P1163oV  C2020 09 16IE48YJDf(vXN\bP'wls0ta8%F_0a+L0TKxG_IEKexplanation+BF51

Station data:
(568) Mauna Kea  (N19.826116 W155.472200)  US/Hawaii.
(F51) Pan-STARRS 1, Haleakala  (N20.707235 W156.255910)  US/Hawaii.
   Observers N. Primak, A. Schultz, S. Watters, J. Thiel, T. Goggia. Measurer
   PS1 Science Consortium. 1.8-m Ritchey-Chrétien + CCD.

Orbital elements:  P1163oV
   Perihelion 2020 Oct 30.805992 +/- 14.5 TT = 19:20:37 (JD 2459153.305992)
Epoch 2020 Sep 16.0 TT = JDT 2459108.5   Earth MOID: 0.7253   AutoNEOCP
M 349.18023068 +/- 5.3              (J2000 ecliptic)
n   0.24148040 +/- 0.0689           Peri.  291.52175 +/- 10
a   2.55396405 +/- 0.486            Node   113.93356 +/- 4.3
e   0.3491707 +/- 0.102             Incl.   13.39079 +/- 0.50
P   4.08                   H 20.0   G  0.15   U 10.9  
q 1.66219439 +/- 0.0724    Q 3.44573370 +/- 1.22
From 10 observations 2020 Sept. 14-16; mean residual 0".09
Residuals in arcseconds: 
200914 F51  .09-  .23-    200915 568  .02+  .00     200916 F51  .08-  .16+    
200914 F51  .01+  .12+    200915 568  .01-  .02+    200916 F51  .00   .03-    
200914 F51  .00   .08+    200915 568  .02-  .02-    
200914 F51  .08+  .03+    200916 F51  .09+  .13-    

Ephemerides (geocentric):
Date (UTC) HH   RA              Dec         delta   r     elong  mag " sig PA
---- -- -- --  -------------   -----------  ------ ------ -----  --- ---- ---
2020 09 17 00  03 49 31.888   -04 09 28.60  .98068 1.6973 117.5 22.4 .217  55
2020 09 17 01  03 49 35.068   -04 09 43.79  .98037 1.6973 117.5 22.4 .245  50
2020 09 17 02  03 49 38.245   -04 09 59.00  .98007 1.6972 117.5 22.4 .276  45
2020 09 17 03  03 49 41.419   -04 10 14.21  .97976 1.6972 117.5 22.4 .309  42
2020 09 17 04  03 49 44.590   -04 10 29.43  .97945 1.6971 117.5 22.4 .344  39
2020 09 17 05  03 49 47.757   -04 10 44.67  .97914 1.6970 117.6 22.4 .381  36
2020 09 17 06  03 49 50.922   -04 10 59.91  .97883 1.6970 117.6 22.4 .420  34
2020 09 17 07  03 49 54.084   -04 11 15.16  .97852 1.6969 117.6 22.4 .460  33
2020 09 17 08  03 49 57.243   -04 11 30.42  .97821 1.6968 117.6 22.4 .501  31
2020 09 17 09  03 50 00.398   -04 11 45.69  .97790 1.6968 117.7 22.4 .544  30
2020 09 17 10  03 50 03.551   -04 12 00.97  .97759 1.6967 117.7 22.4 .588  29
2020 09 17 11  03 50 06.701   -04 12 16.26  .97729 1.6966 117.7 22.4 .633  28
2020 09 17 12  03 50 09.847   -04 12 31.56  .97698 1.6966 117.7 22.4 .679  27
2020 09 17 13  03 50 12.991   -04 12 46.86  .97667 1.6965 117.8 22.4 .727  26
2020 09 17 14  03 50 16.131   -04 13 02.18  .97636 1.6964 117.8 22.4 .776  25
2020 09 17 15  03 50 19.268   -04 13 17.50  .97606 1.6964 117.8 22.4 .826  25
2020 09 17 16  03 50 22.403   -04 13 32.84  .97575 1.6963 117.8 22.4 .877  24
2020 09 17 17  03 50 25.534   -04 13 48.18  .97544 1.6962 117.8 22.4 .930  24
2020 09 17 18  03 50 28.662   -04 14 03.53  .97513 1.6962 117.9 22.4 .983  23
2020 09 17 19  03 50 31.787   -04 14 18.89  .97483 1.6961 117.9 22.4 1.04  23
2020 09 17 20  03 50 34.909   -04 14 34.26  .97452 1.6960 117.9 22.4 1.09  23
2020 09 17 21  03 50 38.028   -04 14 49.64  .97421 1.6960 117.9 22.4 1.15  22
2020 09 17 22  03 50 41.144   -04 15 05.02  .97391 1.6959 118.0 22.4 1.21  22
2020 09 17 23  03 50 44.257   -04 15 20.42  .97360 1.6959 118.0 22.4 1.27  22
2020 09 18 00  03 50 47.366   -04 15 35.83  .97329 1.6958 118.0 22.4 1.33  22
2020 09 18 01  03 50 50.473   -04 15 51.24  .97299 1.6957 118.0 22.4 1.39  21
2020 09 18 02  03 50 53.576   -04 16 06.66  .97268 1.6957 118.1 22.4 1.45  21
2020 09 18 03  03 50 56.677   -04 16 22.09  .97237 1.6956 118.1 22.4 1.51  21
2020 09 18 04  03 50 59.774   -04 16 37.53  .97207 1.6955 118.1 22.4 1.58  21
2020 09 18 05  03 51 02.868   -04 16 52.98  .97176 1.6955 118.1 22.4 1.65  21
2020 09 18 06  03 51 05.959   -04 17 08.44  .97146 1.6954 118.2 22.4 1.71  20
2020 09 18 07  03 51 09.047   -04 17 23.90  .97115 1.6953 118.2 22.4 1.78  20
2020 09 18 08  03 51 12.132   -04 17 39.37  .97085 1.6953 118.2 22.4 1.85  20
2020 09 18 09  03 51 15.214   -04 17 54.86  .97054 1.6952 118.2 22.4 1.92  20
2020 09 18 10  03 51 18.293   -04 18 10.35  .97024 1.6952 118.2 22.4 1.99  20
2020 09 18 11  03 51 21.368   -04 18 25.85  .96993 1.6951 118.3 22.4 2.06  20
2020 09 18 12  03 51 24.441   -04 18 41.35  .96963 1.6950 118.3 22.4 2.14  20
2020 09 18 13  03 51 27.510   -04 18 56.87  .96932 1.6950 118.3 22.4 2.21  20
2020 09 18 14  03 51 30.577   -04 19 12.39  .96902 1.6949 118.3 22.4 2.29  20
2020 09 18 15  03 51 33.640   -04 19 27.93  .96872 1.6948 118.4 22.4 2.36  20
2020 09 18 16  03 51 36.700   -04 19 43.47  .96841 1.6948 118.4 22.4 2.44  19
2020 09 18 17  03 51 39.757   -04 19 59.02  .96811 1.6947 118.4 22.4 2.52  19
2020 09 18 18  03 51 42.810   -04 20 14.58  .96780 1.6946 118.4 22.4 2.60  19
2020 09 18 19  03 51 45.861   -04 20 30.14  .96750 1.6946 118.5 22.4 2.68  19
2020 09 18 20  03 51 48.908   -04 20 45.72  .96720 1.6945 118.5 22.4 2.77  19
2020 09 18 21  03 51 51.953   -04 21 01.30  .96689 1.6945 118.5 22.4 2.85  19
2020 09 18 22  03 51 54.994   -04 21 16.89  .96659 1.6944 118.5 22.4 2.93  19
2020 09 18 23  03 51 58.032   -04 21 32.49  .96629 1.6943 118.5 22.4 3.02  19